Tracking 28799 objects as of 18-Apr-2024
HD Live streaming from Space Station
objects crossing your sky now

SL-8 DEB

Track SL-8 DEB now!
10-day predictions


NORAD ID: 21171
Int'l Code: 1991-009AJ
Perigee: 1,437.8 km
Apogee: 1,746.4 km
Inclination: 74.0 °
Period: 117.9 minutes
Semi major axis: 7963 km
RCS: 0.1788 m2 (medium)
Launch date: February 12, 1991
Source: Commonwealth of Independent States (former USSR) (CIS)
Launch site: PLESETSK MISSILE AND SPACE COMPLEX (PKMTR)

Note: This is SATELLITE DEBRIS
Your satellite tracking list
Your tracking list is empty




NASA's NSSDC Master Catalog

Two Line Element Set (TLE):
1 21171U 91009AJ  24108.62026435  .00000018  00000-0  29239-3 0  9991
2 21171  73.9522 322.4635 0193751   9.0339  56.8156 12.21735435477076
Source of the keplerian elements: AFSPC